Flag for United Kingdom

Past Weather in Royal Kingston upon Thames, England, United Kingdom — Yesterday and Last 2 Weeks

Now
54 °F

Passing clouds.


Feels Like: 49 °F
Forecast: 56 / 48 °F
Wind: 15 mph from Southwest

Location: Northolt

Current Time: Dec 6, 2019 at 6:48:44 am

Latest Report: Dec 6, 2019 at 5:50 am


Visibility: N/A

Pressure: 29.74 "Hg

Humidity: 88%

Dew Point: 50 °F

Location of Royal Kingston upon ThamesLocation

Past Weather in Royal Kingston upon Thames — Graph

°F

Royal Kingston upon Thames Temperature Yesterday

Maximum temperature yesterday: 50 °F (at 6:20 pm)
Minimum temperature yesterday: 28 °F (at 12:50 am)
Average temperature yesterday: 41 °F

High & Low Weather Summary for the Past Weeks

 TemperatureHumidityPressure
High55 °F (Nov 26, 11:50 am)100% (Nov 21, 10:50 pm)30.45 "Hg (Nov 21, 10:50 pm)
Low28 °F (Nov 29, 11:50 pm)66% (Dec 3, 12:50 pm)28.94 "Hg (Nov 27, 1:50 pm)
Average44 °F90%29.78 "Hg
* Reported Nov 21 4:50 am — Dec 6 4:50 am, Royal Kingston upon Thames. Weather by CustomWeather, © 2019

Note: Actual official high and low records may vary slightly from our data, if they occured in-between our weather recording intervals... More about our weather records

Royal Kingston upon Thames Weather History for the Previous 24 Hours

Scroll right to see more
 ConditionsComfort  
Time TempWeatherWind HumidityBarometerVisibility
4:50 am
Fri, Dec 6
52 °FOvercast.13 mph94%29.77 "HgN/A
3:50 am52 °FPassing clouds.12 mph94%29.77 "HgN/A
2:50 am52 °FLow clouds.14 mph94%29.80 "HgN/A
1:50 am50 °FLow clouds.13 mph94%29.83 "HgN/A
12:50 am50 °FLow clouds.17 mph94%29.83 "HgN/A
11:50 pm
Thu, Dec 5
50 °FOvercast.16 mph94%29.86 "HgN/A
10:50 pm50 °FOvercast.15 mph88%29.89 "HgN/A
9:50 pm50 °FPartly cloudy.16 mph82%29.92 "HgN/A
8:50 pm50 °FPassing clouds.14 mph76%29.92 "HgN/A
8:20 pm50 °FPassing clouds.17 mph76%29.95 "HgN/A
7:50 pm50 °FPartly cloudy.17 mph76%29.95 "HgN/A
7:20 pm50 °FPartly cloudy.16 mph76%29.95 "HgN/A
6:50 pm50 °FPartly cloudy.18 mph76%29.95 "HgN/A
6:20 pm50 °FPartly cloudy.17 mph76%29.95 "HgN/A
5:50 pm48 °FPartly cloudy.17 mph82%29.98 "HgN/A
5:22 pm48 °FPassing clouds.14 mph82%29.98 "HgN/A
4:50 pm48 °FLight rain. Passing clouds.14 mph82%29.98 "HgN/A
4:20 pm46 °FClear.12 mph87%30.01 "Hg10 mi
3:50 pm46 °FPartly cloudy.9 mph82%30.01 "HgN/A
3:20 pm46 °FBroken clouds.12 mph82%30.01 "HgN/A
2:50 pm46 °FPartly sunny.9 mph87%30.04 "HgN/A
2:20 pm45 °FPartly sunny.8 mph87%30.04 "HgN/A
1:50 pm46 °FPartly sunny.12 mph82%30.07 "HgN/A
12:50 pm45 °FPartly sunny.7 mph87%30.09 "Hg5 mi
11:50 am43 °FPartly sunny.5 mph87%30.12 "Hg4 mi
11:20 am41 °FPartly sunny.3 mph93%30.12 "Hg4 mi
10:50 am37 °FPartly sunny.3 mph100%30.12 "Hg3 mi
10:20 am37 °FFog.2 mph100%30.15 "Hg3 mi
9:50 am36 °FFog.3 mph100%30.15 "Hg3 mi
9:21 am36 °FFog.3 mph100%30.15 "Hg3 mi
8:50 am34 °FFog.1 mph100%30.15 "Hg2 mi
8:25 am34 °FFog.1 mph100%30.15 "Hg2 mi
7:50 am34 °FFog.2 mph93%30.15 "Hg2 mi
7:27 am32 °FIce fog.2 mph100%30.12 "Hg2 mi
6:50 am32 °FIce fog.2 mph100%30.15 "Hg2 mi
Weather by CustomWeather, © 2019

See weather overview

Advertising